Location: Kazanice
(53.5528°N, 19.7258°E)
Time: 19:20:19
(UTC+01:00)

ISS - Visible Passes

Search period start: 22 February 2018 00:00
Search period end: 04 March 2018 00:00
Orbit: 402 x 407 km, 51.6° (Epoch: 23 February)

Date Brightness Start Highest point End Pass type
(mag) Time Alt. Az. Time Alt. Az. Time Alt. Az.
27 Feb -0.6 05:36:02 10° SSE 05:36:54 11° SE 05:37:46 10° SE visible
01 Mar -1.3 05:26:02 10° SSW 05:28:24 19° SSE 05:30:46 10° E visible
02 Mar -1.0 04:34:50 10° S 04:36:20 13° SE 04:37:50 10° ESE visible
03 Mar -2.2 05:17:05 10° SW 05:19:58 29° SSE 05:22:52 10° E visible
